Temp
63 66 68 70 70 70 70 70 71 70 71 71 72 73 74 73 73 72 71 69 69 72 75 77 76 75 75 73 72 72 72 72 72 72 71 70 69 69 69 69 69 69 68
61 63 63 63 62 65 70 70 71 72 74 74 73 73 73 73 73 73 74 73 68 69 72 75 76 76 76 75 73 72 72 71 71 71 71 70 69 69 68 68 68 68 68
60 60 60 59 61 63 64 65 66 69 69 72 72 72 72 72 72 73 75 75 74 67 68 70 73 74 75 75 74 73 72 71 71 71 71 70 70 69 68 68 68 68 68
60 59 58 58 60 61 60 62 61 62 64 66 68 71 70 73 77 76 75 76 77 78 72 67 69 71 73 74 75 75 73 72 71 71 71 70 70 69 69 68 68 68 68
59 59 58 57 58 58 58 58 59 59 60 62 63 67 70 70 72 75 76 76 75 75 77 73 68 67 69 71 73 75 75 74 73 72 71 71 70 69 69 68 68 68 68
59 60 59 55 56 54 54 54 54 58 60 56 62 66 64 69 71 67 69 73 73 70 71 73 73 73 66 68 70 72 75 76 75 74 73 72 71 69 68 68 68 68 68
57 55 56 54 53 52 52 53 52 53 54 55 56 57 61 65 60 61 63 66 64 65 66 66 68 69 70 67 66 66 67 68 69 73 73 72 71 69 68 68 69 68 68
56 58 54 53 52 51 51 51 51 50 51 53 52 53 53 57 58 62 63 62 58 62 64 64 61 65 65 65 64 60 61 63 65 65 66 66 68 69 68 68 68 68 68
55 55 53 53 51 50 50 49 50 49 48 50 52 50 47 48 49 56 56 58 56 58 59 58 60 63 64 63 59 55 55 57 60 62 63 63 63 64 66 68 67 67 67
55 55 53 52 51 51 50 49 50 49 47 47 48 53 52 49 47 45 53 54 55 57 56 57 58 60 59 58 57 55 53 53 55 59 61 61 62 62 63 64 65 66 67
53 54 53 51 51 51 50 49 48 48 48 47 46 46 47 47 49 48 46 47 53 54 53 55 56 56 59 58 56 56 54 53 54 57 58 59 60 60 60 61 61 63 64
50 50 52 50 49 50 50 48 48 48 47 46 47 46 45 44 45 44 43 44 44 49 52 53 54 55 55 55 59 57 55 53 53 54 56 57 57 57 58 58 58 58 59
46 47 48 48 48 48 48 48 47 46 46 45 45 46 46 46 47 46 44 43 42 46 46 49 52 52 55 54 54 56 56 52 52 52 54 54 54 55 55 56 56 57 57
47 48 48 48 48 49 48 47 46 46 45 44 43 44 45 46 47 45 44 42 40 42 45 45 51 50 52 52 54 54 54 52 51 51 51 52 52 53 53 54 54 54 55
52 48 48 47 48 48 47 46 44 44 44 44 43 43 44 45 46 45 45 43 40 34 37 43 43 49 49 50 51 51 52 53 51 49 49 49 50 50 51 52 52 52 52
47 47 46 46 47 47 46 45 43 43 42 42 45 43 43 44 44 44 43 43 42 39 35 42 43 44 46 48 50 49 50 52 50 48 47 46 47 48 48 49 50 49 49
46 47 47 47 47 46 45 43 42 42 41 41 42 43 43 44 44 42 42 41 40 40 35 39 41 42 41 42 44 45 47 49 47 47 46 45 45 45 46 46 47 47 47
46 47 47 47 47 46 44 42 41 41 40 40 41 41 43 47 41 40 40 39 39 40 39 34 38 39 40 41 41 41 45 47 44 46 45 44 44 44 44 43 44 45 45
46 46 47 46 46 45 43 42 41 40 40 39 40 41 42 42 38 37 37 37 38 40 39 36 35 39 39 41 40 42 41 41 44 46 44 44 43 43 44 43 43 43 44
45 45 46 46 46 44 43 42 41 38 38 40 41 41 42 42 38 37 39 37 40 39 38 37 36 36 37 39 39 36 36 38 38 43 43 43 43 43 43 43 43 44 43
46 46 46 45 45 44 43 38 37 37 37 39 40 42 42 42 43 41 41 39 39 37 36 35 34 34 34 35 34 36 34 36 37 38 37 37 38 38 38 41 42 44 42
44 44 44 44 43 46 39 39 38 36 38 38 37 38 39 41 41 41 41 39 38 36 35 34 33 32 33 34 35 34 34 32 29 36 34 35 39 36 38 40 41 41 40
41 41 42 43 42 38 39 40 38 37 36 36 36 37 38 41 38 39 39 38 38 38 37 34 32 32 33 35 35 33 32 32 32 36 35 32 37 34 36 39 41 39 37
41 41 41 42 41 40 39 39 38 36 35 36 36 36 35 36 37 38 37 37 36 35 36 37 35 36 37 37 36 35 34 34 34 36 37 31 36 34 34 36 37 37 36
40 41 43 41 39 38 38 39 38 35 36 34 36 36 36 37 38 38 35 33 33 33 38 39 39 38 38 38 37 35 33 32 31 33 35 33 34 33 33 31 34 36 36
43 42 42 39 40 38 39 39 37 34 32 33 35 36 37 36 36 37 34 33 31 33 34 34 35 36 37 38 39 36 34 31 32 31 33 32 33 33 31 33 33 32 33
MSLP
1019.48 1019.17 1018.92 1018.58 1018.61 1018.66 1018.47 1018.24 1017.75 1017.44 1017.24 1016.73 1016.58 1016.64 1016.51 1016.44 1016.20 1016.06 1015.98 1015.99 1016.03 1016.02 1015.88 1015.79 1015.65 1015.51 1015.35 1015.25 1015.22 1015.24 1015.37 1015.47 1015.41 1015.26 1015.15 1015.13 1015.12 1015.08 1015.05 1015.09 1015.16 1015.24 1015.28
1020.21 1019.90 1019.67 1019.52 1019.37 1018.94 1018.34 1017.97 1017.63 1017.26 1016.88 1016.36 1016.30 1015.93 1015.82 1015.73 1015.67 1015.54 1015.39 1015.31 1015.28 1015.26 1015.17 1015.01 1014.90 1014.83 1014.66 1014.48 1014.30 1014.24 1014.26 1014.34 1014.43 1014.46 1014.43 1014.38 1014.33 1014.25 1014.19 1014.16 1014.18 1014.18 1014.19
1020.85 1020.69 1020.55 1020.39 1020.15 1019.68 1019.20 1018.62 1018.20 1017.68 1017.33 1016.72 1016.60 1016.18 1015.79 1015.57 1015.36 1015.07 1014.89 1014.75 1014.57 1014.52 1014.42 1014.32 1014.26 1014.13 1013.99 1013.79 1013.57 1013.35 1013.26 1013.29 1013.28 1013.27 1013.27 1013.28 1013.27 1013.27 1013.29 1013.30 1013.30 1013.30 1013.31
1021.32 1021.31 1021.28 1021.12 1020.71 1020.32 1019.96 1019.52 1019.18 1018.48 1017.98 1017.46 1016.93 1016.42 1016.07 1015.63 1015.16 1014.79 1014.39 1014.14 1013.94 1013.79 1013.65 1013.67 1013.52 1013.35 1013.19 1013.01 1012.90 1012.79 1012.68 1012.56 1012.41 1012.30 1012.25 1012.21 1012.14 1012.12 1012.13 1012.21 1012.31 1012.36 1012.48
1021.70 1021.71 1021.70 1021.69 1021.41 1021.08 1020.62 1020.31 1019.84 1019.30 1018.79 1018.20 1017.57 1016.77 1016.22 1015.85 1015.43 1014.94 1014.66 1014.24 1013.72 1013.36 1013.10 1012.74 1012.60 1012.50 1012.36 1012.23 1012.03 1011.80 1011.52 1011.41 1011.30 1011.19 1011.13 1011.01 1010.94 1011.01 1011.13 1011.22 1011.25 1011.43 1011.55
1022.22 1021.98 1022.06 1022.12 1021.94 1021.74 1021.44 1021.05 1020.55 1020.03 1019.58 1019.07 1017.76 1017.00 1016.31 1015.54 1015.30 1015.46 1015.42 1014.93 1014.71 1014.91 1014.74 1014.33 1013.60 1013.27 1013.29 1013.21 1012.52 1012.09 1011.80 1010.98 1010.19 1009.96 1009.96 1009.92 1009.92 1010.00 1010.02 1010.18 1010.40 1010.40 1010.38
1022.87 1022.70 1022.71 1022.64 1022.54 1022.52 1022.38 1022.04 1021.39 1020.89 1020.29 1019.59 1018.41 1017.01 1016.26 1015.62 1016.10 1016.10 1015.85 1015.75 1015.83 1015.60 1015.63 1014.87 1015.48 1014.01 1013.60 1013.33 1013.60 1013.34 1012.56 1012.02 1011.15 1010.52 1010.05 1009.64 1009.14 1008.92 1009.05 1009.21 1009.46 1009.68 1009.75
1023.48 1023.17 1023.13 1023.12 1023.07 1023.01 1022.90 1022.55 1022.32 1021.96 1021.45 1020.89 1020.33 1019.16 1017.72 1016.53 1016.48 1016.52 1016.49 1016.58 1016.72 1016.22 1015.72 1015.96 1015.34 1014.26 1014.29 1013.81 1013.76 1014.45 1013.78 1012.77 1011.78 1011.27 1010.76 1010.11 1009.41 1008.81 1008.56 1008.33 1008.26 1008.34 1008.48
1024.05 1023.87 1023.68 1023.52 1023.33 1023.26 1023.32 1023.18 1023.00 1022.71 1022.42 1021.95 1021.55 1021.26 1020.19 1019.83 1018.82 1017.08 1017.42 1017.63 1017.60 1017.08 1016.63 1016.37 1015.90 1015.77 1014.26 1014.21 1014.98 1014.44 1013.69 1013.71 1012.50 1011.99 1011.49 1010.55 1010.16 1009.27 1008.64 1008.27 1008.26 1008.08 1008.13
1024.63 1024.46 1024.25 1024.08 1023.82 1023.77 1023.76 1023.57 1023.42 1023.33 1023.07 1022.81 1022.27 1022.13 1021.87 1021.59 1020.71 1019.32 1018.07 1018.09 1018.11 1017.73 1017.42 1016.60 1016.09 1015.74 1015.30 1016.00 1015.15 1014.93 1014.29 1013.84 1013.12 1012.71 1011.16 1010.86 1010.39 1009.52 1009.11 1008.75 1008.88 1008.31 1007.87
1025.08 1024.84 1024.78 1024.62 1024.34 1024.22 1024.08 1024.18 1024.09 1023.92 1023.76 1023.62 1023.25 1022.95 1022.53 1021.88 1021.44 1021.20 1019.53 1018.24 1018.01 1018.32 1018.09 1017.10 1016.72 1016.26 1015.83 1015.31 1014.84 1014.38 1014.57 1013.02 1011.85 1011.01 1011.13 1011.18 1010.40 1009.77 1008.60 1008.33 1009.04 1009.11 1008.04
1025.58 1025.46 1025.28 1025.17 1025.00 1024.76 1024.64 1024.69 1024.64 1024.60 1024.45 1024.15 1023.92 1023.53 1023.25 1022.93 1022.37 1021.94 1021.17 1020.44 1019.48 1018.03 1018.08 1017.72 1017.27 1016.68 1016.18 1015.60 1015.18 1014.87 1014.19 1013.47 1013.33 1012.49 1011.92 1011.86 1011.30 1010.51 1009.71 1008.92 1009.53 1008.44 1007.32
1026.13 1026.12 1025.94 1025.71 1025.53 1025.32 1025.20 1025.17 1025.17 1025.16 1024.98 1024.74 1024.56 1024.18 1023.76 1023.29 1022.83 1022.29 1021.61 1020.83 1019.96 1019.03 1018.47 1017.92 1017.57 1017.14 1016.62 1015.99 1015.54 1015.07 1014.44 1013.92 1013.19 1012.63 1012.22 1011.69 1011.27 1010.87 1009.85 1008.92 1008.62 1008.12 1007.81
1026.63 1026.52 1026.38 1026.12 1025.88 1025.70 1025.53 1025.48 1025.50 1025.40 1025.33 1025.11 1024.83 1024.47 1024.13 1023.53 1023.04 1022.59 1022.09 1021.26 1019.82 1019.41 1018.99 1018.32 1017.63 1017.21 1016.63 1016.11 1015.51 1014.68 1013.93 1013.35 1012.93 1012.63 1012.58 1012.20 1011.85 1011.12 1010.27 1009.46 1009.20 1008.72 1007.98
1026.76 1026.88 1026.55 1026.32 1026.03 1025.67 1025.58 1025.66 1026.02 1026.03 1025.76 1025.40 1025.07 1024.64 1024.23 1023.68 1023.25 1022.81 1022.32 1022.12 1021.66 1020.08 1018.76 1018.25 1018.12 1017.31 1016.67 1015.88 1015.24 1014.57 1013.88 1013.27 1012.65 1012.43 1012.42 1012.17 1011.76 1011.10 1010.20 1009.60 1009.00 1008.55 1008.04
1027.01 1026.76 1026.45 1026.17 1025.82 1025.79 1025.89 1026.18 1026.37 1026.31 1026.10 1025.75 1025.27 1024.80 1024.31 1023.84 1023.32 1022.87 1022.67 1022.33 1022.03 1021.53 1020.04 1019.45 1018.71 1018.08 1017.26 1016.39 1015.52 1014.80 1014.11 1013.31 1012.64 1012.36 1012.04 1011.82 1011.31 1010.62 1009.88 1009.12 1008.65 1008.23 1007.63
1026.75 1026.40 1026.21 1026.17 1026.19 1026.05 1026.31 1026.50 1026.57 1026.49 1026.19 1025.74 1025.24 1024.78 1024.29 1023.72 1023.32 1023.11 1022.78 1022.42 1022.12 1021.79 1020.77 1019.56 1019.26 1018.52 1017.80 1016.89 1015.76 1015.13 1014.41 1013.39 1012.92 1012.49 1011.92 1011.48 1010.80 1010.07 1009.38 1008.94 1008.34 1007.70 1007.20
1026.60 1026.47 1026.42 1026.41 1026.34 1026.34 1026.58 1026.72 1026.76 1026.58 1026.27 1025.83 1025.32 1024.80 1024.24 1023.77 1023.59 1023.37 1023.16 1022.82 1022.38 1021.73 1021.11 1019.86 1019.29 1018.57 1018.02 1017.21 1016.41 1015.60 1014.55 1014.04 1013.37 1012.65 1012.04 1011.40 1010.59 1009.87 1009.17 1008.60 1007.91 1007.08 1006.49
1026.74 1026.61 1026.55 1026.56 1026.51 1026.50 1026.82 1026.87 1026.88 1026.66 1026.34 1025.94 1025.44 1024.86 1024.23 1023.90 1023.72 1023.59 1023.25 1022.90 1022.43 1021.92 1021.31 1020.42 1019.16 1018.76 1018.01 1017.24 1016.15 1015.48 1014.75 1013.96 1013.24 1012.46 1011.80 1011.17 1010.45 1009.67 1008.80 1008.04 1007.27 1006.56 1005.87
1026.84 1026.77 1026.64 1026.57 1026.48 1026.72 1026.93 1027.00 1026.91 1026.68 1026.32 1025.88 1025.36 1024.82 1024.37 1024.12 1023.76 1023.49 1023.03 1022.71 1022.07 1021.52 1020.88 1020.15 1019.18 1018.32 1017.72 1016.97 1016.34 1015.18 1013.97 1013.68 1012.70 1012.03 1011.32 1010.67 1009.86 1009.24 1008.45 1007.70 1006.90 1006.24 1005.65
1026.88 1026.80 1026.79 1026.69 1026.61 1026.78 1027.00 1027.28 1027.09 1026.68 1026.28 1025.87 1025.47 1025.03 1024.55 1024.16 1023.66 1023.39 1022.90 1022.33 1021.87 1021.27 1020.61 1019.77 1018.94 1018.09 1017.24 1016.46 1016.02 1015.24 1014.30 1013.29 1012.66 1011.92 1010.79 1010.37 1009.59 1008.98 1008.25 1007.41 1006.61 1005.82 1005.35
1027.14 1027.06 1026.98 1026.85 1026.73 1026.81 1027.32 1027.18 1026.95 1026.68 1026.45 1026.09 1025.64 1025.12 1024.59 1023.92 1023.52 1023.04 1022.52 1022.23 1021.96 1021.18 1020.45 1019.74 1018.85 1017.97 1017.16 1016.52 1015.85 1015.19 1014.19 1013.25 1011.96 1011.16 1010.66 1009.71 1009.45 1008.71 1008.00 1007.25 1006.46 1005.75 1005.23
1027.18 1027.10 1026.96 1026.87 1026.80 1027.20 1027.28 1027.02 1026.75 1026.55 1026.33 1025.98 1025.55 1025.04 1024.44 1023.83 1023.45 1022.80 1022.17 1021.84 1021.32 1020.86 1020.27 1019.49 1018.67 1017.87 1016.85 1016.12 1015.40 1014.58 1013.94 1013.21 1012.15 1011.25 1010.64 1009.28 1008.92 1008.33 1007.66 1006.94 1006.28 1005.76 1005.46
1026.98 1026.90 1026.86 1026.81 1026.87 1027.22 1027.16 1026.97 1026.63 1026.41 1026.15 1025.82 1025.45 1025.01 1024.44 1023.71 1023.17 1022.54 1021.86 1021.28 1020.80 1020.12 1019.33 1018.81 1018.13 1017.18 1016.42 1015.59 1015.16 1014.37 1013.50 1012.58 1011.60 1010.71 1010.25 1009.15 1008.23 1007.81 1007.41 1006.67 1006.31 1005.91 1005.49
1026.86 1026.84 1026.81 1026.94 1027.08 1027.20 1027.15 1026.73 1026.59 1026.52 1026.21 1025.81 1025.30 1024.78 1024.28 1023.65 1022.93 1022.31 1021.67 1020.82 1020.06 1019.20 1018.40 1017.74 1017.12 1016.41 1015.66 1014.94 1014.33 1013.74 1012.84 1012.02 1010.82 1010.00 1009.53 1008.99 1007.89 1007.45 1007.07 1006.32 1006.14 1005.79 1005.35
1026.73 1026.86 1027.09 1027.19 1027.12 1027.08 1026.88 1026.62 1026.60 1026.62 1026.29 1025.62 1025.07 1024.54 1024.01 1023.39 1022.57 1021.89 1021.30 1020.48 1019.56 1018.56 1017.79 1016.94 1016.20 1015.48 1014.81 1014.07 1013.48 1013.21 1012.50 1011.61 1010.77 1009.59 1009.03 1008.83 1007.83 1007.54 1006.66 1006.04 1006.07 1005.85 1005.31
Wind_Speed
7 7 7 7 6 5 4 5 5 5 7 8 8 8 9 7 7 4 4 13 16 17 18 19 19 20 19 19 19 19 19 20 20 21 21 20 20 20 20 20 20 20 20
7 7 8 8 8 8 9 8 8 7 6 4 6 6 7 6 7 7 5 6 13 16 18 20 21 21 21 21 21 21 21 21 21 22 22 21 21 21 21 21 21 22 22
9 9 7 8 8 7 9 8 9 9 7 7 7 6 6 7 6 8 8 7 7 14 17 20 20 21 22 23 23 22 22 22 23 23 23 23 23 23 22 22 22 23 23
9 8 7 8 8 7 7 7 7 7 7 7 7 8 6 6 11 12 9 8 8 8 11 17 20 22 23 23 23 23 23 23 23 24 24 24 24 24 24 23 23 23 23
9 7 7 8 8 7 7 7 6 6 6 8 8 7 7 8 8 8 12 9 8 9 8 12 17 19 21 22 23 25 25 25 25 25 26 26 26 25 25 23 23 23 23
10 10 8 9 8 8 9 9 9 8 6 7 8 7 7 6 6 6 9 10 12 16 15 17 11 10 14 20 19 20 24 26 27 27 27 27 25 24 23 23 22 23 23
7 8 6 7 8 8 9 10 8 9 8 12 4 6 4 5 8 10 4 9 13 12 14 13 11 9 9 14 18 26 27 25 23 23 27 25 23 23 22 21 23 23 22
8 9 7 6 7 6 8 8 9 6 4 9 7 4 5 4 9 8 6 8 13 9 9 13 15 12 11 7 7 28 29 27 24 26 26 24 19 20 21 21 22 22 22
8 8 7 7 5 5 6 5 7 10 6 6 8 5 5 5 10 5 7 7 13 8 9 11 11 11 10 10 13 15 27 23 28 26 23 24 24 25 21 16 17 16 16
9 9 8 6 6 6 8 6 6 5 4 7 3 6 2 4 4 8 6 8 9 9 12 9 9 12 12 8 12 16 19 17 20 20 21 22 21 19 20 24 24 15 12
8 8 8 7 8 7 8 8 6 10 5 4 4 3 2 4 2 6 9 15 8 8 9 7 8 9 9 11 8 11 15 15 20 26 24 18 21 19 16 16 21 24 16
5 7 8 7 6 8 9 6 7 9 8 6 6 6 5 4 7 5 7 8 12 12 9 10 9 9 11 11 14 15 15 14 15 17 15 19 20 21 19 17 17 17 20
4 6 6 6 5 6 7 6 6 7 7 6 6 6 4 6 5 5 6 9 10 8 5 4 8 7 9 9 10 19 15 11 13 9 12 18 23 25 25 23 24 23 20
4 6 6 6 6 6 6 6 5 6 7 5 7 6 3 6 5 4 6 10 11 9 8 14 8 8 10 9 15 22 14 11 10 11 10 15 22 24 24 25 21 20 21
3 4 4 4 5 6 6 6 5 8 6 6 5 6 4 4 5 4 5 4 7 13 13 6 10 12 12 13 15 14 14 22 17 9 15 17 23 26 25 25 21 18 19
3 4 5 6 7 7 7 6 5 5 6 5 6 6 5 4 5 4 3 5 6 8 10 11 10 14 15 13 16 15 16 21 14 20 18 22 26 26 25 23 19 18 18
5 6 6 6 6 6 6 6 5 6 7 7 7 8 9 7 5 4 4 4 4 7 11 10 11 13 15 17 16 15 15 12 11 21 22 28 27 26 22 22 22 19 19
5 5 6 5 6 6 5 6 5 6 8 9 9 9 10 8 5 5 6 5 7 7 10 20 13 14 15 15 15 17 12 12 11 17 25 25 26 21 24 25 24 18 16
5 6 5 5 5 5 5 6 5 6 7 6 7 9 10 5 5 4 5 7 7 8 10 12 14 13 13 13 16 14 14 14 9 23 20 23 19 21 25 24 26 25 13
5 5 5 5 5 6 5 5 5 6 7 8 8 8 8 11 5 8 9 7 11 12 11 11 12 12 11 12 11 13 13 10 13 12 17 14 20 23 23 24 23 22 14
4 5 5 5 5 5 4 5 5 5 6 8 10 11 10 14 15 14 11 12 12 10 11 11 12 12 11 11 12 11 12 12 11 12 12 9 11 10 12 17 18 21 14
4 4 4 4 4 4 7 4 5 5 6 8 9 10 9 13 12 17 15 13 11 12 15 12 13 13 13 13 11 11 12 12 14 6 11 14 11 11 10 9 18 17 13
2 3 4 3 4 6 3 7 7 4 5 6 8 9 10 10 13 12 13 16 15 17 17 14 15 13 15 14 14 13 13 13 13 12 12 13 10 9 9 9 18 13 14
2 3 3 3 4 4 2 6 7 6 6 6 8 11 12 13 13 15 16 15 14 14 14 10 13 15 15 15 15 14 15 13 12 10 8 11 10 11 6 8 8 11 12
2 2 2 6 6 2 1 9 7 5 6 8 11 10 12 13 17 22 16 16 15 14 13 18 19 22 25 24 20 11 10 10 11 11 7 7 7 7 5 5 3 9 10
1 3 5 5 6 4 6 8 7 3 6 8 11 12 16 15 22 24 17 14 14 14 13 15 15 15 15 14 20 11 10 10 10 11 3 4 9 6 5 2 2 4 4
Wind_Direction
11 5 5 6 13 6 346 316 265 239 250 232 228 234 243 240 235 230 227 207 208 216 220 225 225 224 223 223 225 229 234 239 240 237 234 231 230 229 229 231 233 234 237
18 19 16 13 5 354 353 354 349 339 307 272 253 244 247 245 247 250 246 251 223 223 225 228 231 231 230 229 227 229 230 232 237 240 240 237 234 233 231 231 232 232 234
29 28 22 11 1 359 0 359 360 352 342 334 317 302 290 278 256 245 242 240 240 231 231 232 235 237 238 238 236 232 231 231 232 234 236 237 236 235 235 235 235 236 237
43 37 30 19 7 9 12 359 2 346 347 343 335 321 309 302 286 270 256 248 245 250 238 235 236 239 243 246 249 246 242 240 237 236 236 238 237 236 236 235 236 238 240
40 38 36 17 11 13 17 2 358 353 331 359 322 315 314 305 303 312 308 285 261 254 249 246 235 237 239 243 246 248 245 243 240 238 239 238 236 236 238 237 236 238 241
36 44 38 26 18 20 17 7 353 354 17 335 322 321 291 283 287 344 341 349 360 14 6 357 350 343 320 302 290 290 279 263 248 242 242 242 240 239 237 238 241 241 240
40 37 36 38 29 28 15 11 355 357 4 354 319 337 315 295 52 358 349 14 17 14 8 22 346 1 343 345 5 18 23 9 352 313 279 264 248 239 236 240 253 256 255
31 39 35 29 38 30 18 14 16 358 355 6 358 296 347 337 6 340 30 19 15 352 3 10 1 352 356 345 26 23 12 13 20 14 1 354 318 268 255 242 240 240 242
27 31 33 31 30 32 22 7 15 14 8 357 28 11 348 355 323 356 9 10 1 355 8 343 345 335 350 8 33 19 4 350 4 356 349 354 354 357 339 292 271 261 260
33 26 24 22 29 23 22 6 23 18 1 18 358 1 342 285 347 324 330 344 350 354 355 347 356 2 10 355 4 7 4 343 349 343 356 343 339 348 345 346 330 313 294
36 24 22 21 33 26 22 16 17 24 10 5 9 341 329 318 10 313 320 329 337 353 340 354 4 345 2 353 346 347 337 349 350 345 344 348 355 352 354 355 333 316 308
34 21 19 21 30 27 19 15 20 23 10 5 359 5 1 352 342 345 323 321 326 336 330 339 5 344 349 341 337 337 335 338 343 350 11 358 356 355 353 355 327 327 334
27 19 15 19 25 31 17 25 20 23 8 8 3 357 337 346 347 332 331 326 320 316 329 335 336 332 330 323 327 333 326 338 0 344 12 6 358 349 343 338 332 330 322
30 22 15 19 33 32 23 37 18 20 3 355 358 351 330 337 339 334 333 327 329 327 335 327 346 343 332 347 331 333 327 329 342 327 3 357 353 346 339 329 317 321 323
27 30 25 23 33 36 23 42 29 17 357 347 340 340 335 317 328 314 326 352 343 326 328 344 334 333 341 333 334 332 332 331 322 341 356 0 349 337 327 323 311 318 324
26 37 32 25 32 24 26 48 31 9 354 338 346 337 330 309 309 312 353 351 337 318 310 330 330 334 331 329 325 333 329 330 345 349 351 350 339 330 322 320 318 318 328
24 37 30 29 25 14 42 53 25 11 356 346 339 343 330 317 326 351 345 330 336 333 309 319 319 322 324 322 325 326 328 323 336 335 342 338 329 326 332 341 334 315 327
20 40 30 32 23 19 62 47 26 2 352 343 333 332 325 332 353 10 352 347 320 316 323 314 319 324 323 321 314 323 322 326 321 327 334 328 323 337 328 330 325 306 314
33 26 25 22 15 18 57 34 18 351 343 324 318 320 318 359 6 354 331 336 330 323 320 316 316 318 318 320 318 316 314 313 314 321 318 316 318 315 318 321 320 319 315
41 19 14 12 360 64 57 25 7 344 334 333 322 321 348 356 341 347 341 324 325 320 312 308 309 308 309 315 309 313 313 309 314 315 311 301 298 313 315 314 313 311 318
21 13 15 358 4 100 51 33 351 331 336 348 349 349 349 332 344 335 330 325 323 319 315 310 307 306 309 313 313 314 306 311 314 305 304 310 315 312 311 316 314 315 319
351 5 350 347 358 93 88 28 357 2 358 348 340 334 325 323 327 325 322 323 320 317 313 309 309 306 305 308 306 307 303 310 310 300 321 312 315 309 306 308 308 315 335
324 327 320 355 13 106 87 20 13 4 340 322 327 321 325 327 321 319 326 319 311 307 297 297 297 295 298 300 305 303 300 299 297 302 301 301 312 303 302 301 325 350 348
280 307 331 344 45 128 64 25 10 348 330 326 335 332 323 321 323 326 322 320 315 305 296 292 288 289 290 297 298 297 296 290 289 286 282 298 309 303 299 302 329 336 336
312 322 346 29 64 159 16 22 14 339 334 337 334 327 327 321 313 317 320 317 313 302 296 291 288 290 295 295 292 296 293 297 300 301 296 282 295 306 291 288 289 330 341
333 27 47 44 33 21 359 356 22 357 338 335 336 334 327 317 316 319 318 314 310 305 307 304 303 304 297 293 302 286 291 294 297 303 285 285 304 315 302 259 295 307 323